Home > Weather > Stavanger > Past weeks

Flag for Norway Weather for the Past 2 Weeks in Stavanger, Norway

Now
43 °F

Partly cloudy.


Feels Like: 34 °F
Forecast: 40 / 43 °F
Wind: 20 mph from South

Location: Stavanger / Sola

Current Time: Feb 8, 2016 at 3:28:41 AM

Latest Report: Feb 8, 2016 at 1:50 AM


Visibility: 6 mi

Pressure: 28.82 "Hg

Humidity: 87%

Dew point: 39 °F

Location of StavangerLocation

Historic Weather in Stavanger — Graph

°F

Stavanger Temperature Yesterday

Maximum temperature yesterday: 46 °F (at 12:50 AM)
Minimum temperature yesterday: 43 °F (at 4:20 PM)
Average temperature yesterday: 45 °F

High & Low Weather Summary for the Past Weeks

 TemperatureHumidityPressure
High52 °F (Jan 25, 12:20 PM)100% (Jan 24, 7:50 AM)30.15 "Hg (Jan 24, 7:50 AM)
Low30 °F (Feb 4, 9:20 PM)56% (Jan 31, 10:20 PM)28.77 "Hg (Feb 2, 1:50 PM)
Average42 °F84%29.43 "Hg
* Reported Jan 24 1:50 AM — Feb 8 1:50 AM, Stavanger, Weather by CustomWeather, © 2016

Note: Actual official high and low records may vary slightly from our data, if they occured in-between our weather recording intervals... More about our weather records

Advertising

Stavanger Weather History for the Previous 24 Hours

 ConditionsComfort  
Time TempWeatherWind HumidityBarometerVisibility
1:50 AM
Mon, Feb 8
43 °FPartly cloudy.20 mph87%28.82 "Hg6 mi
12:50 AM45 °FScattered showers. Partly cloudy.25 mph81%28.85 "Hg5 mi
11:50 PM
Sun, Feb 7
45 °FRain showers. Partly cloudy.25 mph81%28.85 "Hg5 mi
11:20 PM45 °FScattered showers. Partly cloudy.25 mph81%28.85 "Hg6 mi
10:50 PM45 °FScattered showers. Partly cloudy.28 mph81%28.85 "Hg5 mi
10:20 PM45 °FRain showers. Partly cloudy.30 mph81%28.85 "Hg5 mi
9:50 PM43 °FRain showers. Partly cloudy.28 mph87%28.85 "Hg6 mi
9:20 PM43 °FRain showers. Passing clouds.29 mph87%28.85 "HgN/A
8:50 PM43 °FRain showers. Partly cloudy.29 mph81%28.88 "HgN/A
8:20 PM43 °FRain showers. Passing clouds.25 mph81%28.88 "HgN/A
7:50 PM43 °FScattered showers. Passing clouds.28 mph81%28.91 "HgN/A
7:20 PM43 °FScattered showers. Partly cloudy.24 mph81%28.91 "HgN/A
6:50 PM43 °FScattered showers. Partly cloudy.22 mph81%28.94 "HgN/A
6:20 PM43 °FScattered showers. Partly cloudy.23 mph87%28.94 "HgN/A
5:50 PM43 °FRain showers. Partly cloudy.17 mph81%28.94 "HgN/A
5:20 PM43 °FPartly cloudy.22 mph87%28.97 "HgN/A
4:50 PM43 °FPartly sunny.23 mph87%28.97 "HgN/A
4:20 PM43 °FScattered showers. Broken clouds.24 mph87%28.97 "HgN/A
3:50 PM45 °FScattered showers. Broken clouds.18 mph81%28.97 "HgN/A
3:20 PM45 °FLight rain. Broken clouds.18 mph81%29.00 "HgN/A
2:50 PM46 °FBroken clouds.21 mph82%29.00 "HgN/A
2:20 PM46 °FBroken clouds.21 mph82%29.00 "HgN/A
1:50 PM45 °FPartly sunny.17 mph87%29.03 "HgN/A
1:20 PM45 °FPartly sunny.17 mph87%29.03 "HgN/A
12:50 PM45 °FBroken clouds.15 mph87%29.03 "HgN/A
12:20 PM45 °FBroken clouds.15 mph87%29.03 "HgN/A
11:50 AM45 °FBroken clouds.12 mph87%29.03 "HgN/A
11:20 AM45 °FBroken clouds.14 mph93%29.00 "HgN/A
10:50 AM46 °FLight rain. Broken clouds.21 mph87%29.00 "Hg4 mi
10:20 AM46 °FLight rain. Partly sunny.23 mph93%28.97 "Hg6 mi
9:50 AM46 °FRain. Broken clouds.23 mph87%28.97 "Hg6 mi
9:20 AM46 °FRain. Broken clouds.24 mph87%28.97 "Hg6 mi
8:50 AM46 °FRain. Broken clouds.24 mph87%28.97 "Hg6 mi
8:20 AM46 °FRain. Passing clouds.23 mph87%29.00 "Hg6 mi
7:50 AM46 °FRain. Passing clouds.23 mph87%29.00 "Hg5 mi
7:20 AM46 °FLight rain. Passing clouds.24 mph87%29.00 "Hg5 mi
6:50 AM46 °FPassing clouds.23 mph87%29.03 "Hg5 mi
6:20 AM46 °FPassing clouds.22 mph87%29.03 "Hg4 mi
5:50 AM46 °FPartly cloudy.23 mph87%29.06 "Hg4 mi
4:50 AM46 °FPassing clouds.22 mph87%29.06 "Hg2 mi
3:50 AM46 °FLight rain. Passing clouds.23 mph93%29.06 "Hg3 mi
Weather by CustomWeather, © 2016

See weather overviewHow to use our weather pages